This is the latest recevied weather packets stored in our database for station/object SV9TNF-1. If no packets are shown the sender has not sent any weather packets the latest 10 day(s).
| Time | Temp. | Humidity | Pressure | Rain* | Wind** | Luminosity | Snow |
|---|---|---|---|---|---|---|---|
| 1777644623 | 16.67° C | 70% | 1003.7 hPa | 0 mm | 0 m/s | - | - |
| 1777644323 | 16.67° C | 70% | 1003.7 hPa | 0 mm | 1.34 m/s, 129° | - | - |
| 1777644024 | 16.67° C | 70% | 1003.7 hPa | 0 mm | 1.34 m/s, 124° | - | - |
| 1777643723 | 16.67° C | 70% | 1003.7 hPa | 0 mm | 2.24 m/s, 123° | - | - |
| 1777643422 | 16.67° C | 71% | 1003.7 hPa | 0 mm | 0.89 m/s, 128° | - | - |
| 1777643122 | 16.67° C | 71% | 1003.7 hPa | 0 mm | 1.79 m/s, 117° | - | - |
| 1777642822 | 16.67° C | 72% | 1003.7 hPa | 0 mm | 1.34 m/s, 112° | - | - |
| 1777642522 | 16.67° C | 72% | 1003.7 hPa | 0 mm | 0.89 m/s, 132° | - | - |
| 1777642222 | 16.67° C | 72% | 1003.7 hPa | 0 mm | 0.89 m/s, 158° | - | - |
| 1777641922 | 16.67° C | 72% | 1003.7 hPa | 0 mm | 1.79 m/s, 121° | - | - |
| 1777641622 | 16.67° C | 72% | 1004.1 hPa | 0 mm | 0 m/s | - | - |
| 1777641322 | 16.67° C | 72% | 1004.1 hPa | 0 mm | 0.89 m/s, 118° | - | - |
| 1777641022 | 16.67° C | 72% | 1004.1 hPa | 0 mm | 0.45 m/s, 147° | - | - |
| 1777640722 | 16.67° C | 71% | 1004.1 hPa | 0 mm | 1.34 m/s, 149° | - | - |
| 1777640421 | 16.67° C | 71% | 1004.7 hPa | 0 mm | 0.89 m/s, 139° | - | - |
| 1777640121 | 16.67° C | 69% | 1004.7 hPa | 0 mm | 1.79 m/s, 126° | - | - |
| 1777639821 | 16.67° C | 70% | 1004.7 hPa | 0 mm | 0 m/s | - | - |
| 1777639521 | 16.67° C | 69% | 1004.7 hPa | 0 mm | 2.24 m/s, 129° | - | - |
| 1777639221 | 16.67° C | 70% | 1004.7 hPa | 0 mm | 2.68 m/s, 127° | - | - |
| 1777638921 | 16.67° C | 70% | 1004.7 hPa | 0 mm | 0.45 m/s, 132° | - | - |
| 1777638621 | 16.67° C | 70% | 1004.7 hPa | 0 mm | 3.13 m/s, 118° | - | - |
| 1777638321 | 16.67° C | 69% | 1004.7 hPa | 0 mm | 0.45 m/s, 128° | - | - |
| 1777638021 | 16.67° C | 68% | 1004.7 hPa | 0 mm | 1.79 m/s, 124° | - | - |
| 1777637721 | 16.67° C | 68% | 1004.7 hPa | 0 mm | 1.34 m/s, 124° | - | - |
| 1777637421 | 16.67° C | 69% | 1004.7 hPa | 0 mm | 2.24 m/s, 113° | - | - |
* Rain latest hour (hover to see other rain measurements)
** Current wind speed in m/s (hover to see current wind gust speed)